{"data":{"norad_id":68130,"intl_designator":"2026-047B","name":"HULIANWANG DIGUI-156","alt_names":[],"object_type":"PAYLOAD","status":"ACTIVE","operator":null,"country":"PRC","launch_date":"2026-03-12","launch_site_code":"WSC","launch_vehicle":null,"mission":null,"orbit_class":"UNKNOWN","rcs_meters":null,"size_class":null,"mass_kg":null,"dimensions":null,"purposes":[],"wikipedia_slug":null,"has_3d_model":false,"image_url":null,"decayed_at":null,"tle_current":{"epoch":"2026-09-20T22:11:00.307968Z","epoch_age_seconds":41651,"freshness":"FRESH","line1":"1 68130U 26047B   26263.92430912 -.00000107  00000+0  35796-4 0  9998","line2":"2 68130  50.0025  72.9427 0001258  95.0581 265.0435 13.29319812 25794","mean_motion":13.29319812,"eccentricity":0.0001258,"inclination_deg":50.0025,"raan_deg":72.9427,"arg_perigee_deg":95.0581,"mean_anomaly_deg":265.0435,"bstar":3.5796e-5,"rev_number":2579,"period_min":108.32607676504,"perigee_km":1148.3829767236,"apogee_km":1150.2768874037,"semimajor_km":7527.4669320637,"source":"CELESTRAK","updated_at":"2026-09-21T09:00:17.094081Z"}}}